BAW9ZY EGLL-CYYZ

Flight info

Callsign BAW9ZY
Flight time 7h 6m
Altitude 38000
Route CPT L9 TIGWE DCT FELCA DCT NICXI DCT BAKUR DCT NEBIN/M084F380 DCT 5430N02000W 5530N03000W 5530N04000W 5330N05000W DCT PELTU/N0489F380 DCT YBC DCT YBG DCT ROSVO IMEBA9
Aircraft B789/H-SDE1E2E3FGHIJ2J3J4J5M1RWXY/LB1D1

Departure

Time 2026-05-05 11:06
Airport London Heathrow Airport (EGLL)

Arrival

Time 2026-05-05 18:12
Airport Toronto Pearson International Airport (CYYZ)
Time Latitude Longitude Altitude Speed Heading
2026-05-05 10:34 51.46984 -0.47736 96 ft 0 kts 89°
2026-05-05 10:57 51.46984 -0.47751 96 ft 4 kts 89°
2026-05-05 10:57 51.46984 -0.47794 96 ft 3 kts 89°
2026-05-05 10:57 51.46986 -0.47828 96 ft 4 kts 115°
2026-05-05 10:58 51.47000 -0.47854 96 ft 4 kts 151°
2026-05-05 10:58 51.47024 -0.47868 96 ft 4 kts 171°
2026-05-05 10:58 51.47047 -0.47871 96 ft 1 kts 180°
2026-05-05 10:58 51.47051 -0.47871 96 ft 0 kts 180°
2026-05-05 11:01 51.47047 -0.47871 96 ft 2 kts 180°
2026-05-05 11:01 51.47011 -0.47871 96 ft 8 kts 180°
2026-05-05 11:02 51.46928 -0.47870 96 ft 16 kts 179°
2026-05-05 11:02 51.46798 -0.47868 96 ft 13 kts 179°
2026-05-05 11:02 51.46746 -0.47923 96 ft 10 kts 257°
2026-05-05 11:02 51.46743 -0.48055 96 ft 9 kts 270°
2026-05-05 11:03 51.46743 -0.48081 96 ft 0 kts 270°
2026-05-05 11:03 51.46742 -0.48102 96 ft 4 kts 270°
2026-05-05 11:03 51.46742 -0.48177 96 ft 9 kts 270°
2026-05-05 11:03 51.46742 -0.48298 96 ft 13 kts 270°
2026-05-05 11:04 51.46742 -0.48444 96 ft 16 kts 270°
2026-05-05 11:04 51.46742 -0.48638 96 ft 16 kts 270°
2026-05-05 11:04 51.46700 -0.48741 96 ft 13 kts 195°
2026-05-05 11:04 51.46601 -0.48769 96 ft 17 kts 197°
2026-05-05 11:05 51.46493 -0.48742 96 ft 18 kts 123°
2026-05-05 11:05 51.46478 -0.48520 96 ft 34 kts 89°
2026-05-05 11:05 51.46484 -0.47519 96 ft 141 kts 89°
2026-05-05 11:05 51.46495 -0.45507 139 ft 211 kts 88°
2026-05-05 11:06 51.46497 -0.42998 679 ft 234 kts 89°
2026-05-05 11:06 51.46490 -0.40455 2093 ft 219 kts 88°
2026-05-05 11:06 51.46481 -0.38012 3512 ft 227 kts 87°
2026-05-05 11:06 51.46229 -0.35343 4411 ft 262 kts 106°
2026-05-05 11:07 51.45316 -0.32980 5215 ft 293 kts 128°
2026-05-05 11:07 51.43601 -0.30798 5671 ft 341 kts 149°
2026-05-05 11:07 51.41226 -0.29312 5913 ft 394 kts 163°
2026-05-05 11:07 51.38372 -0.28572 6528 ft 424 kts 175°
2026-05-05 11:08 51.35584 -0.28628 7571 ft 387 kts 184°
2026-05-05 11:08 51.32952 -0.29412 7264 ft 389 kts 196°
2026-05-05 11:08 51.30419 -0.31088 6684 ft 398 kts 207°
2026-05-05 11:08 51.28082 -0.33468 6399 ft 397 kts 217°
2026-05-05 11:09 51.25936 -0.36168 6413 ft 389 kts 220°
2026-05-05 11:09 51.23869 -0.38872 6428 ft 381 kts 221°
2026-05-05 11:09 51.22103 -0.41970 6423 ft 373 kts 235°
2026-05-05 11:09 51.20926 -0.45517 6433 ft 352 kts 250°
2026-05-05 11:10 51.20407 -0.49183 6439 ft 329 kts 266°
2026-05-05 11:10 51.20652 -0.52661 6436 ft 306 kts 288°
2026-05-05 11:10 51.21498 -0.55640 6476 ft 286 kts 299°
2026-05-05 11:10 51.22405 -0.58378 6465 ft 273 kts 300°
2026-05-05 11:11 51.23426 -0.60870 6418 ft 260 kts 315°
2026-05-05 11:11 51.24904 -0.62325 6434 ft 254 kts 341°
2026-05-05 11:11 51.26671 -0.62659 6697 ft 251 kts 359°
2026-05-05 11:11 51.28420 -0.62677 7198 ft 259 kts
2026-05-05 11:12 51.30231 -0.62732 7630 ft 268 kts 355°
2026-05-05 11:12 51.32029 -0.63737 7847 ft 271 kts 330°
2026-05-05 11:12 51.33358 -0.65856 7990 ft 273 kts 306°
2026-05-05 11:12 51.34306 -0.68496 8048 ft 274 kts 300°
2026-05-05 11:13 51.35214 -0.71177 8034 ft 273 kts 300°
2026-05-05 11:13 51.36117 -0.73843 8021 ft 272 kts 300°
2026-05-05 11:13 51.37017 -0.76500 8014 ft 271 kts 300°
2026-05-05 11:13 51.37966 -0.79096 8012 ft 271 kts 304°
2026-05-05 11:14 51.38937 -0.81684 8020 ft 271 kts 302°
2026-05-05 11:14 51.39877 -0.84270 8273 ft 267 kts 302°
2026-05-05 11:14 51.40835 -0.86896 8759 ft 277 kts 302°
2026-05-05 11:14 51.41815 -0.89572 9573 ft 280 kts 302°
2026-05-05 11:15 51.42807 -0.92276 10380 ft 285 kts 302°
2026-05-05 11:15 51.43838 -0.95084 10860 ft 301 kts 301°
2026-05-05 11:15 51.44934 -0.98071 11312 ft 319 kts 301°
2026-05-05 11:15 51.46089 -1.01222 11756 ft 337 kts 301°
2026-05-05 11:16 51.47303 -1.04540 12286 ft 351 kts 301°
2026-05-05 11:16 51.48556 -1.07968 12964 ft 361 kts 301°
2026-05-05 11:16 51.49838 -1.11479 13711 ft 368 kts 300°
2026-05-05 11:16 51.51144 -1.15062 14477 ft 374 kts 300°
2026-05-05 11:17 51.52464 -1.18691 15250 ft 379 kts 300°
2026-05-05 11:17 51.53801 -1.22369 16063 ft 382 kts 300°
2026-05-05 11:17 51.55144 -1.26067 16872 ft 385 kts 300°
2026-05-05 11:17 51.56500 -1.29802 17619 ft 389 kts 299°
2026-05-05 11:18 51.57888 -1.33637 18280 ft 395 kts 299°
2026-05-05 11:18 51.59281 -1.37496 18863 ft 403 kts 299°
2026-05-05 11:18 51.60698 -1.41422 19519 ft 408 kts 299°
2026-05-05 11:18 51.62124 -1.45377 20234 ft 411 kts 299°
2026-05-05 11:19 51.63559 -1.49368 20947 ft 413 kts 298°
2026-05-05 11:19 51.65002 -1.53387 21618 ft 416 kts 298°
2026-05-05 11:19 51.66457 -1.57445 22227 ft 421 kts 298°
2026-05-05 11:19 51.67917 -1.61553 22808 ft 425 kts 297°
2026-05-05 11:20 51.69052 -1.65959 23357 ft 427 kts 286°
2026-05-05 11:20 51.69856 -1.70571 24008 ft 428 kts 282°
2026-05-05 11:20 51.70528 -1.75244 24617 ft 429 kts 280°
2026-05-05 11:20 51.71071 -1.79992 25194 ft 432 kts 277°
2026-05-05 11:21 51.71519 -1.84787 25728 ft 435 kts 276°
2026-05-05 11:21 51.71913 -1.89642 26235 ft 438 kts 275°
2026-05-05 11:21 51.72285 -1.94531 26750 ft 441 kts 275°
2026-05-05 11:21 51.72644 -1.99448 27257 ft 443 kts 275°
2026-05-05 11:22 51.72997 -2.04399 27753 ft 445 kts 275°
2026-05-05 11:22 51.73347 -2.09370 28216 ft 448 kts 275°
2026-05-05 11:22 51.73697 -2.14381 28649 ft 451 kts 275°
2026-05-05 11:22 51.74047 -2.19422 29065 ft 453 kts 275°
2026-05-05 11:23 51.74397 -2.24492 29469 ft 456 kts 275°
2026-05-05 11:23 51.74746 -2.29594 29867 ft 459 kts 275°
2026-05-05 11:23 51.75093 -2.34713 30251 ft 461 kts 275°
2026-05-05 11:23 51.75440 -2.39885 30538 ft 466 kts 275°
2026-05-05 11:24 51.75789 -2.45107 30822 ft 470 kts 275°
2026-05-05 11:24 51.76139 -2.50372 31113 ft 474 kts 275°
2026-05-05 11:24 51.76489 -2.55674 31436 ft 477 kts 275°
2026-05-05 11:24 51.76840 -2.61011 31830 ft 478 kts 275°
2026-05-05 11:25 51.77193 -2.66429 32235 ft 480 kts 275°
2026-05-05 11:25 51.77539 -2.71793 32639 ft 481 kts 275°
2026-05-05 11:25 51.77883 -2.77168 33049 ft 481 kts 275°
2026-05-05 11:25 51.78224 -2.82546 33450 ft 482 kts 276°
2026-05-05 11:26 51.78566 -2.87944 33844 ft 483 kts 276°
2026-05-05 11:26 51.78906 -2.93345 34248 ft 484 kts 276°
2026-05-05 11:26 51.79243 -2.98742 34691 ft 483 kts 276°
2026-05-05 11:26 51.79576 -3.04141 35116 ft 483 kts 275°
2026-05-05 11:27 51.79905 -3.09535 35563 ft 482 kts 275°
2026-05-05 11:27 51.80231 -3.14909 35987 ft 481 kts 275°
2026-05-05 11:27 51.80555 -3.20279 36407 ft 480 kts 275°
2026-05-05 11:27 51.80877 -3.25642 36816 ft 479 kts 275°
2026-05-05 11:28 51.81197 -3.30996 37208 ft 478 kts 275°
2026-05-05 11:28 51.81514 -3.36334 37578 ft 477 kts 275°
2026-05-05 11:28 51.81828 -3.41676 37860 ft 478 kts 275°
2026-05-05 11:28 51.82139 -3.47048 38000 ft 480 kts 275°
2026-05-05 11:29 51.82520 -3.52411 38018 ft 481 kts 278°
2026-05-05 11:29 51.83732 -3.63054 38030 ft 481 kts 282°
2026-05-05 11:30 51.85103 -3.73648 38033 ft 481 kts 282°
2026-05-05 11:30 51.86472 -3.84241 38025 ft 481 kts 281°
2026-05-05 11:31 51.87815 -3.94851 38030 ft 481 kts 281°
2026-05-05 11:31 51.89151 -4.05452 38031 ft 481 kts 281°
2026-05-05 11:32 51.90481 -4.16058 38020 ft 481 kts 281°
2026-05-05 11:32 51.91589 -4.24950 38030 ft 481 kts 281°
2026-05-05 11:33 51.92903 -4.35571 38027 ft 481 kts 281°
2026-05-05 11:33 51.94207 -4.46191 38022 ft 481 kts 281°
2026-05-05 11:34 51.95505 -4.56825 38036 ft 481 kts 281°
2026-05-05 11:34 51.96793 -4.67473 38025 ft 481 kts 281°
2026-05-05 11:35 51.98069 -4.78119 38032 ft 481 kts 281°
2026-05-05 11:35 51.99335 -4.88770 38040 ft 481 kts 281°
2026-05-05 11:36 52.00667 -4.99394 38003 ft 480 kts 287°
2026-05-05 11:36 52.03312 -5.09280 38046 ft 477 kts 297°
2026-05-05 11:37 52.06451 -5.18760 38028 ft 476 kts 300°
2026-05-05 11:37 52.09765 -5.28067 38041 ft 476 kts 301°
2026-05-05 11:38 52.13145 -5.37390 38052 ft 475 kts 301°
2026-05-05 11:38 52.16504 -5.46661 38047 ft 475 kts 301°
2026-05-05 11:39 52.19849 -5.55944 38051 ft 475 kts 300°
2026-05-05 11:39 52.22962 -5.65436 38067 ft 475 kts 293°
2026-05-05 11:40 52.25305 -5.75556 38083 ft 478 kts 289°
2026-05-05 11:40 52.27312 -5.85890 38074 ft 477 kts 287°
2026-05-05 11:41 52.29177 -5.96289 38087 ft 477 kts 286°
2026-05-05 11:41 52.31015 -6.06701 38093 ft 476 kts 286°
2026-05-05 11:42 52.32836 -6.17098 38084 ft 476 kts 286°
2026-05-05 11:42 52.34646 -6.27506 38099 ft 476 kts 286°
2026-05-05 11:43 52.36439 -6.37910 38096 ft 475 kts 286°
2026-05-05 11:43 52.38219 -6.48304 38097 ft 474 kts 286°
2026-05-05 11:44 52.39993 -6.58681 38110 ft 473 kts 286°
2026-05-05 11:44 52.41754 -6.69050 38102 ft 472 kts 285°
2026-05-05 11:45 52.43500 -6.79406 38107 ft 471 kts 285°
2026-05-05 11:45 52.45236 -6.89748 38115 ft 470 kts 285°
2026-05-05 11:46 52.46959 -7.00088 38102 ft 470 kts 285°
2026-05-05 11:46 52.48669 -7.10426 38113 ft 469 kts 285°
2026-05-05 11:47 52.50367 -7.20751 38111 ft 469 kts 285°
2026-05-05 11:47 52.52069 -7.31143 38102 ft 468 kts 285°
2026-05-05 11:48 52.54587 -7.46634 38115 ft 468 kts 285°
2026-05-05 11:48 52.56248 -7.56954 38101 ft 467 kts 285°
2026-05-05 11:49 52.57900 -7.67273 38114 ft 467 kts 285°
2026-05-05 11:49 52.59547 -7.77618 38108 ft 467 kts 285°
2026-05-05 11:50 52.61183 -7.87961 38105 ft 467 kts 285°
2026-05-05 11:50 52.62812 -7.98312 38116 ft 467 kts 285°
2026-05-05 11:51 52.64426 -8.08658 38104 ft 466 kts 285°
2026-05-05 11:51 52.66031 -8.18997 38110 ft 466 kts 285°
2026-05-05 11:52 52.67628 -8.29356 38116 ft 466 kts 285°
2026-05-05 11:52 52.69213 -8.39688 38103 ft 465 kts 284°
2026-05-05 11:53 52.70786 -8.50028 38117 ft 465 kts 284°
2026-05-05 11:53 52.72354 -8.60385 38112 ft 465 kts 284°
2026-05-05 11:54 52.73909 -8.70742 38109 ft 465 kts 284°
2026-05-05 11:54 52.75458 -8.81098 38120 ft 465 kts 284°
2026-05-05 11:55 52.76996 -8.91467 38107 ft 465 kts 284°
2026-05-05 11:55 52.78523 -9.01843 38112 ft 465 kts 284°
2026-05-05 11:56 52.80045 -9.12218 38118 ft 465 kts 284°
2026-05-05 11:56 52.81565 -9.22673 38106 ft 464 kts 284°
2026-05-05 11:57 52.83059 -9.33026 38116 ft 464 kts 284°
2026-05-05 11:57 52.84551 -9.43420 38115 ft 464 kts 284°
2026-05-05 11:58 52.86033 -9.53811 38106 ft 464 kts 283°
2026-05-05 11:58 52.87504 -9.64206 38119 ft 464 kts 283°
2026-05-05 11:59 52.88967 -9.74609 38110 ft 464 kts 283°
2026-05-05 11:59 52.90418 -9.85006 38111 ft 464 kts 283°
2026-05-05 12:00 52.91861 -9.95435 38120 ft 464 kts 283°
2026-05-05 12:00 52.93295 -10.05850 38107 ft 463 kts 283°
2026-05-05 12:01 52.94717 -10.16247 38114 ft 463 kts 283°
2026-05-05 12:01 52.96132 -10.26666 38117 ft 463 kts 283°
2026-05-05 12:02 52.97537 -10.37083 38106 ft 463 kts 283°
2026-05-05 12:02 52.98933 -10.47506 38119 ft 463 kts 283°
2026-05-05 12:03 53.00318 -10.57947 38112 ft 463 kts 283°
2026-05-05 12:03 53.01694 -10.68392 38109 ft 463 kts 283°
2026-05-05 12:04 53.03060 -10.78832 38120 ft 463 kts 282°
2026-05-05 12:04 53.04418 -10.89283 38109 ft 463 kts 282°
2026-05-05 12:05 53.05773 -10.99744 38115 ft 463 kts 282°
2026-05-05 12:05 53.06898 -11.08512 38120 ft 463 kts 282°
2026-05-05 12:06 53.08230 -11.18983 38107 ft 463 kts 282°
2026-05-05 12:06 53.09553 -11.29459 38117 ft 463 kts 282°
2026-05-05 12:07 53.10864 -11.39947 38116 ft 463 kts 282°
2026-05-05 12:07 53.12169 -11.50439 38107 ft 463 kts 282°
2026-05-05 12:08 53.13464 -11.60926 38120 ft 463 kts 282°
2026-05-05 12:08 53.14752 -11.71436 38112 ft 463 kts 282°
2026-05-05 12:09 53.16030 -11.81938 38111 ft 462 kts 282°
2026-05-05 12:09 53.17298 -11.92449 38122 ft 463 kts 282°
2026-05-05 12:10 53.18556 -12.02969 38110 ft 462 kts 282°
2026-05-05 12:10 53.19811 -12.13545 38114 ft 461 kts 281°
2026-05-05 12:11 53.21048 -12.24054 38122 ft 462 kts 281°
2026-05-05 12:11 53.22276 -12.34572 38109 ft 462 kts 281°
2026-05-05 12:12 53.23495 -12.45093 38120 ft 462 kts 281°
2026-05-05 12:12 53.24705 -12.55621 38118 ft 462 kts 281°
2026-05-05 12:13 53.25905 -12.66158 38111 ft 462 kts 281°
2026-05-05 12:13 53.27095 -12.76707 38124 ft 462 kts 281°
2026-05-05 12:14 53.28278 -12.87265 38114 ft 462 kts 281°
2026-05-05 12:14 53.29452 -12.97814 38115 ft 462 kts 281°
2026-05-05 12:15 53.30617 -13.08380 38125 ft 462 kts 281°
2026-05-05 12:15 53.31767 -13.18921 38111 ft 460 kts 281°
2026-05-05 12:16 53.32910 -13.29462 38121 ft 461 kts 281°
2026-05-05 12:16 53.34044 -13.40017 38121 ft 461 kts 281°
2026-05-05 12:17 53.35169 -13.50581 38112 ft 461 kts 280°
2026-05-05 12:17 53.36289 -13.61217 38125 ft 461 kts 280°
2026-05-05 12:18 53.37391 -13.71795 38117 ft 461 kts 280°
2026-05-05 12:18 53.38485 -13.82373 38117 ft 461 kts 280°
2026-05-05 12:19 53.39571 -13.92958 38129 ft 461 kts 280°
2026-05-05 12:19 53.40650 -14.03566 38118 ft 461 kts 280°
2026-05-05 12:20 53.41716 -14.14139 38122 ft 460 kts 280°
2026-05-05 12:20 53.42773 -14.24727 38129 ft 461 kts 279°
2026-05-05 12:21 53.43822 -14.35332 38118 ft 462 kts 279°
2026-05-05 12:21 53.44863 -14.45954 38128 ft 461 kts 279°
2026-05-05 12:22 53.45894 -14.56583 38125 ft 462 kts 279°
2026-05-05 12:22 53.46916 -14.67206 38119 ft 460 kts 279°
2026-05-05 12:23 53.47929 -14.77816 38132 ft 461 kts 279°
2026-05-05 12:23 53.48930 -14.88441 38123 ft 461 kts 279°
2026-05-05 12:24 53.49976 -14.99127 38109 ft 461 kts 283°
2026-05-05 12:24 53.52003 -15.09304 38136 ft 460 kts 291°
2026-05-05 12:25 53.54315 -15.19339 38120 ft 461 kts 291°
2026-05-05 12:25 53.56598 -15.29402 38132 ft 460 kts 290°
2026-05-05 12:26 53.58849 -15.39484 38131 ft 460 kts 290°
2026-05-05 12:26 53.61079 -15.49569 38123 ft 459 kts 290°
2026-05-05 12:27 53.63304 -15.59676 38138 ft 461 kts 290°
2026-05-05 12:27 53.65523 -15.69800 38128 ft 460 kts 290°
2026-05-05 12:28 53.67728 -15.79915 38130 ft 460 kts 290°
2026-05-05 12:28 53.69927 -15.90049 38139 ft 460 kts 289°
2026-05-05 12:29 53.72116 -16.00197 38127 ft 460 kts 289°
2026-05-05 12:29 53.74295 -16.10355 38137 ft 460 kts 289°
2026-05-05 12:30 53.76468 -16.20525 38137 ft 460 kts 289°
2026-05-05 12:30 53.78634 -16.30708 38129 ft 460 kts 289°
2026-05-05 12:31 53.80808 -16.40965 38141 ft 461 kts 289°
2026-05-05 12:31 53.82963 -16.51188 38135 ft 461 kts 289°
2026-05-05 12:32 53.85104 -16.61418 38134 ft 461 kts 289°
2026-05-05 12:32 53.87236 -16.71657 38145 ft 461 kts 289°
2026-05-05 12:33 53.89362 -16.81904 38133 ft 461 kts 289°
2026-05-05 12:33 53.91477 -16.92159 38141 ft 461 kts 289°
2026-05-05 12:34 53.93585 -17.02431 38144 ft 461 kts 289°
2026-05-05 12:34 53.95682 -17.12707 38134 ft 461 kts 289°
2026-05-05 12:35 53.97772 -17.22997 38147 ft 461 kts 289°
2026-05-05 12:35 53.99854 -17.33302 38141 ft 461 kts 289°
2026-05-05 12:36 54.01931 -17.43638 38140 ft 462 kts 289°
2026-05-05 12:36 54.04000 -17.53988 38150 ft 462 kts 289°
2026-05-05 12:37 54.06062 -17.64358 38138 ft 462 kts 289°
2026-05-05 12:37 54.08112 -17.74723 38147 ft 462 kts 289°
2026-05-05 12:38 54.10157 -17.85107 38150 ft 462 kts 289°
2026-05-05 12:38 54.11863 -17.93818 38139 ft 462 kts 289°
2026-05-05 12:39 54.13887 -18.04219 38150 ft 462 kts 288°
2026-05-05 12:39 54.15905 -18.14636 38150 ft 462 kts 288°
2026-05-05 12:40 54.17915 -18.25065 38142 ft 462 kts 288°
2026-05-05 12:40 54.19914 -18.35497 38156 ft 463 kts 288°
2026-05-05 12:41 54.21906 -18.45950 38147 ft 463 kts 288°
2026-05-05 12:41 54.23889 -18.56407 38148 ft 463 kts 288°
2026-05-05 12:42 54.25865 -18.66892 38159 ft 464 kts 288°
2026-05-05 12:42 54.27837 -18.77414 38147 ft 464 kts 288°
2026-05-05 12:43 54.29800 -18.87938 38154 ft 464 kts 288°
2026-05-05 12:43 54.31754 -18.98477 38159 ft 464 kts 288°
2026-05-05 12:44 54.33698 -19.09026 38170 ft 465 kts 288°
2026-05-05 12:44 54.35636 -19.19606 38170 ft 465 kts 288°
2026-05-05 12:45 54.37567 -19.30208 38163 ft 466 kts 288°
2026-05-05 12:45 54.39492 -19.40826 38175 ft 466 kts 288°
2026-05-05 12:46 54.41408 -19.51458 38166 ft 466 kts 288°
2026-05-05 12:46 54.43314 -19.62099 38169 ft 466 kts 288°
2026-05-05 12:47 54.45210 -19.72756 38177 ft 466 kts 287°
2026-05-05 12:47 54.47095 -19.83427 38165 ft 466 kts 287°
2026-05-05 12:48 54.48975 -19.94174 38177 ft 466 kts 287°
2026-05-05 12:48 54.50663 -20.04949 38200 ft 467 kts 285°
2026-05-05 12:49 54.52263 -20.15791 38219 ft 467 kts 285°
2026-05-05 12:49 54.53823 -20.26657 38227 ft 467 kts 284°
2026-05-05 12:50 54.55360 -20.37507 38215 ft 466 kts 284°
2026-05-05 12:50 54.56885 -20.48368 38229 ft 467 kts 284°
2026-05-05 12:51 54.58400 -20.59236 38223 ft 466 kts 284°
2026-05-05 12:51 54.59904 -20.70104 38223 ft 466 kts 284°
2026-05-05 12:52 54.61400 -20.80980 38233 ft 465 kts 284°
2026-05-05 12:52 54.62885 -20.91855 38221 ft 465 kts 284°
2026-05-05 12:53 54.64359 -21.02742 38233 ft 465 kts 284°
2026-05-05 12:53 54.65819 -21.13616 38230 ft 465 kts 284°
2026-05-05 12:54 54.67996 -21.29950 38234 ft 465 kts 284°
2026-05-05 12:55 54.69444 -21.40923 38234 ft 465 kts 284°
2026-05-05 12:55 54.70872 -21.51816 38227 ft 465 kts 284°
2026-05-05 12:56 54.72290 -21.62724 38240 ft 465 kts 284°
2026-05-05 12:56 54.73700 -21.73653 38232 ft 465 kts 284°
2026-05-05 12:57 54.75097 -21.84571 38234 ft 465 kts 284°
2026-05-05 12:57 54.76487 -21.95514 38243 ft 465 kts 284°
2026-05-05 12:58 54.77863 -22.06445 38231 ft 464 kts 284°
2026-05-05 12:58 54.79230 -22.17372 38241 ft 464 kts 284°
2026-05-05 12:59 54.80588 -22.28323 38242 ft 465 kts 284°
2026-05-05 12:59 54.81934 -22.39278 38233 ft 465 kts 284°
2026-05-05 13:00 54.83942 -22.55732 38246 ft 465 kts 284°
2026-05-05 13:01 54.86584 -22.77722 38262 ft 465 kts 283°
2026-05-05 13:01 54.87897 -22.88783 38267 ft 465 kts 283°
2026-05-05 13:02 54.89193 -22.99790 38256 ft 465 kts 283°
2026-05-05 13:02 54.90478 -23.10807 38268 ft 465 kts 283°
2026-05-05 13:03 54.91754 -23.21834 38266 ft 465 kts 283°
2026-05-05 13:03 54.93019 -23.32858 38260 ft 465 kts 283°
2026-05-05 13:04 54.94274 -23.43887 38273 ft 465 kts 283°
2026-05-05 13:04 54.95519 -23.54929 38263 ft 465 kts 283°
2026-05-05 13:05 54.96753 -23.65964 38278 ft 465 kts 283°
2026-05-05 13:05 54.97976 -23.77000 38303 ft 465 kts 283°
2026-05-05 13:06 54.99193 -23.88071 38318 ft 465 kts 283°
2026-05-05 13:06 55.00400 -23.99149 38314 ft 465 kts 283°
2026-05-05 13:07 55.01596 -24.10239 38312 ft 466 kts 283°
2026-05-05 13:07 55.02781 -24.21326 38323 ft 465 kts 283°
2026-05-05 13:08 55.03958 -24.32423 38313 ft 465 kts 283°
2026-05-05 13:08 55.05124 -24.43521 38319 ft 465 kts 283°
2026-05-05 13:09 55.06279 -24.54641 38327 ft 466 kts 283°
2026-05-05 13:09 55.07425 -24.65773 38315 ft 466 kts 283°
2026-05-05 13:10 55.08377 -24.75099 38324 ft 466 kts 283°
2026-05-05 13:10 55.09508 -24.86233 38329 ft 466 kts 283°
2026-05-05 13:11 55.10629 -24.97400 38319 ft 466 kts 283°
2026-05-05 13:11 55.11734 -25.08538 38333 ft 466 kts 283°
2026-05-05 13:12 55.12831 -25.19679 38326 ft 465 kts 283°
2026-05-05 13:12 55.13918 -25.30845 38327 ft 466 kts 283°
2026-05-05 13:13 55.14996 -25.42013 38338 ft 466 kts 283°
2026-05-05 13:13 55.16065 -25.53207 38325 ft 467 kts 282°
2026-05-05 13:14 55.17120 -25.64397 38335 ft 467 kts 282°
2026-05-05 13:14 55.18170 -25.75612 38338 ft 467 kts 282°
2026-05-05 13:15 55.19208 -25.86816 38329 ft 466 kts 282°
2026-05-05 13:15 55.20242 -25.98096 38342 ft 467 kts 282°
2026-05-05 13:16 55.21258 -26.09323 38336 ft 466 kts 282°
2026-05-05 13:16 55.22262 -26.20519 38336 ft 466 kts 282°
2026-05-05 13:17 55.23258 -26.31734 38347 ft 466 kts 282°
2026-05-05 13:17 55.24243 -26.42953 38336 ft 466 kts 282°
2026-05-05 13:18 55.25218 -26.54177 38347 ft 466 kts 282°
2026-05-05 13:18 55.26181 -26.65401 38358 ft 466 kts 282°
2026-05-05 13:19 55.27135 -26.76638 38346 ft 466 kts 282°
2026-05-05 13:19 55.28076 -26.87862 38355 ft 465 kts 282°
2026-05-05 13:20 55.29006 -26.99082 38391 ft 465 kts 282°
2026-05-05 13:20 55.29928 -27.10311 38421 ft 465 kts 282°
2026-05-05 13:21 55.30838 -27.21547 38439 ft 465 kts 282°
2026-05-05 13:21 55.31738 -27.32781 38448 ft 465 kts 282°
2026-05-05 13:22 55.32626 -27.44013 38436 ft 464 kts 282°
2026-05-05 13:22 55.33505 -27.55246 38445 ft 465 kts 282°
2026-05-05 13:23 55.34380 -27.66568 38446 ft 465 kts 282°
2026-05-05 13:23 55.35239 -27.77822 38437 ft 464 kts 281°
2026-05-05 13:24 55.36085 -27.89068 38450 ft 465 kts 281°
2026-05-05 13:24 55.36924 -28.00347 38443 ft 465 kts 281°
2026-05-05 13:25 55.37749 -28.11587 38439 ft 462 kts 281°
2026-05-05 13:25 55.38564 -28.22809 38454 ft 463 kts 281°
2026-05-05 13:26 55.39363 -28.34024 38441 ft 462 kts 281°
2026-05-05 13:26 55.40152 -28.45238 38448 ft 461 kts 281°
2026-05-05 13:27 55.40937 -28.56434 38451 ft 461 kts 281°
2026-05-05 13:27 55.41707 -28.67634 38439 ft 460 kts 281°
2026-05-05 13:28 55.42464 -28.78822 38452 ft 460 kts 281°
2026-05-05 13:28 55.43211 -28.90001 38447 ft 459 kts 281°
2026-05-05 13:29 55.43947 -29.01173 38445 ft 459 kts 281°
2026-05-05 13:29 55.44672 -29.12326 38456 ft 458 kts 281°
2026-05-05 13:30 55.45385 -29.23466 38443 ft 457 kts 280°
2026-05-05 13:30 55.46090 -29.34660 38451 ft 457 kts 280°
2026-05-05 13:31 55.46782 -29.45778 38454 ft 456 kts 280°
2026-05-05 13:31 55.47465 -29.56878 38443 ft 455 kts 280°
2026-05-05 13:32 55.48135 -29.67977 38457 ft 455 kts 280°
2026-05-05 13:32 55.48791 -29.79060 38449 ft 455 kts 280°
2026-05-05 13:33 55.49436 -29.90152 38449 ft 455 kts 279°
2026-05-05 13:33 55.49989 -30.01264 38459 ft 455 kts 279°
2026-05-05 13:34 55.50485 -30.12386 38445 ft 454 kts 278°
2026-05-05 13:34 55.50939 -30.23513 38457 ft 455 kts 278°
2026-05-05 13:35 55.51371 -30.34641 38452 ft 455 kts 278°
2026-05-05 13:35 55.51792 -30.45849 38450 ft 455 kts 277°
2026-05-05 13:36 55.52200 -30.56983 38461 ft 455 kts 277°
2026-05-05 13:36 55.52598 -30.68126 38449 ft 455 kts 277°
2026-05-05 13:37 55.52986 -30.79268 38456 ft 455 kts 277°
2026-05-05 13:37 55.53364 -30.90418 38461 ft 456 kts 277°
2026-05-05 13:38 55.53731 -31.01582 38448 ft 455 kts 276°
2026-05-05 13:38 55.54088 -31.12740 38461 ft 455 kts 276°
2026-05-05 13:39 55.54436 -31.23915 38435 ft 456 kts 276°
2026-05-05 13:39 55.54773 -31.35076 38399 ft 455 kts 276°
2026-05-05 13:40 55.55099 -31.46241 38380 ft 455 kts 276°
2026-05-05 13:40 55.55418 -31.57427 38371 ft 456 kts 276°
2026-05-05 13:41 55.55725 -31.68607 38382 ft 456 kts 275°
2026-05-05 13:41 55.56021 -31.79801 38375 ft 456 kts 275°
2026-05-05 13:42 55.56307 -31.90986 38372 ft 456 kts 275°
2026-05-05 13:42 55.56584 -32.02201 38383 ft 457 kts 275°
2026-05-05 13:43 55.56810 -32.11599 38372 ft 457 kts 275°
2026-05-05 13:43 55.57069 -32.22818 38374 ft 457 kts 275°
2026-05-05 13:44 55.57316 -32.34051 38381 ft 458 kts 274°
2026-05-05 13:44 55.57555 -32.45292 38368 ft 458 kts 274°
2026-05-05 13:45 55.57783 -32.56550 38378 ft 458 kts 274°
2026-05-05 13:45 55.58002 -32.67809 38376 ft 459 kts 274°
2026-05-05 13:46 55.58211 -32.79082 38367 ft 459 kts 274°
2026-05-05 13:46 55.58408 -32.90360 38380 ft 459 kts 273°
2026-05-05 13:47 55.58595 -33.01650 38370 ft 460 kts 273°
2026-05-05 13:47 55.58772 -33.12947 38371 ft 460 kts 273°
2026-05-05 13:48 55.58940 -33.24253 38378 ft 461 kts 273°
2026-05-05 13:48 55.59097 -33.35576 38365 ft 461 kts 272°
2026-05-05 13:49 55.59241 -33.46908 38377 ft 461 kts 272°
2026-05-05 13:49 55.59377 -33.58248 38373 ft 462 kts 272°
2026-05-05 13:50 55.59502 -33.69584 38365 ft 461 kts 272°
2026-05-05 13:50 55.59618 -33.80935 38378 ft 462 kts 272°
2026-05-05 13:51 55.59726 -33.92371 38366 ft 462 kts 272°
2026-05-05 13:51 55.59822 -34.03725 38371 ft 462 kts 271°
2026-05-05 13:52 55.59904 -34.15114 38374 ft 464 kts 271°
2026-05-05 13:52 55.59974 -34.26522 38362 ft 464 kts 271°
2026-05-05 13:53 55.60036 -34.37926 38371 ft 464 kts 271°
2026-05-05 13:53 55.60092 -34.49354 38371 ft 465 kts 271°
2026-05-05 13:54 55.60134 -34.60790 38362 ft 465 kts 271°
2026-05-05 13:54 55.60163 -34.72245 38375 ft 466 kts 270°
2026-05-05 13:55 55.60185 -34.83727 38365 ft 467 kts 270°
2026-05-05 13:55 55.60194 -34.95218 38363 ft 468 kts 270°
2026-05-05 13:56 55.60194 -35.06739 38373 ft 469 kts 270°
2026-05-05 13:56 55.60183 -35.18273 38359 ft 469 kts 270°
2026-05-05 13:57 55.60159 -35.29814 38366 ft 470 kts 270°
2026-05-05 13:57 55.60125 -35.41391 38367 ft 471 kts 270°
2026-05-05 13:58 55.60081 -35.52946 38356 ft 470 kts 269°
2026-05-05 13:58 55.60027 -35.64541 38369 ft 472 kts 269°
2026-05-05 13:59 55.59924 -35.82004 38354 ft 471 kts 269°
2026-05-05 14:00 55.59809 -35.97429 38368 ft 472 kts 269°
2026-05-05 14:00 55.59694 -36.11001 38368 ft 473 kts 269°
2026-05-05 14:01 55.59582 -36.22623 38375 ft 473 kts 269°
2026-05-05 14:01 55.59461 -36.34254 38362 ft 474 kts 268°
2026-05-05 14:02 55.59328 -36.45918 38371 ft 475 kts 268°
2026-05-05 14:02 55.59185 -36.57604 38369 ft 476 kts 268°
2026-05-05 14:03 55.59030 -36.69315 38360 ft 477 kts 268°
2026-05-05 14:03 55.58862 -36.81055 38372 ft 478 kts 267°
2026-05-05 14:04 55.58683 -36.92829 38361 ft 480 kts 267°
2026-05-05 14:04 55.58491 -37.04639 38362 ft 481 kts 267°
2026-05-05 14:05 55.58288 -37.16467 38367 ft 482 kts 266°
2026-05-05 14:05 55.58073 -37.28338 38331 ft 483 kts 266°
2026-05-05 14:06 55.57846 -37.40302 38295 ft 484 kts 266°
2026-05-05 14:06 55.57607 -37.52208 38258 ft 485 kts 266°
2026-05-05 14:07 55.57356 -37.64122 38235 ft 486 kts 266°
2026-05-05 14:07 55.57093 -37.76058 38221 ft 486 kts 266°
2026-05-05 14:08 55.56819 -37.87997 38223 ft 486 kts 266°
2026-05-05 14:08 55.56532 -37.99954 38229 ft 487 kts 265°
2026-05-05 14:09 55.56233 -38.11932 38216 ft 488 kts 265°
2026-05-05 14:09 55.55923 -38.23909 38222 ft 488 kts 265°
2026-05-05 14:10 55.55601 -38.35885 38221 ft 489 kts 265°
2026-05-05 14:10 55.55267 -38.47865 38215 ft 488 kts 264°
2026-05-05 14:11 55.54922 -38.59855 38226 ft 489 kts 264°
2026-05-05 14:11 55.54565 -38.71862 38213 ft 489 kts 264°
2026-05-05 14:12 55.54193 -38.83932 38216 ft 490 kts 264°
2026-05-05 14:12 55.53810 -38.95970 38220 ft 491 kts 263°
2026-05-05 14:13 55.53415 -39.08010 38207 ft 492 kts 263°
2026-05-05 14:13 55.53007 -39.20059 38217 ft 492 kts 263°
2026-05-05 14:14 55.52659 -39.30097 38214 ft 493 kts 263°
2026-05-05 14:14 55.52229 -39.42175 38203 ft 493 kts 262°
2026-05-05 14:15 55.51787 -39.54269 38215 ft 494 kts 262°
2026-05-05 14:15 55.51333 -39.66367 38204 ft 494 kts 262°
2026-05-05 14:16 55.50866 -39.78461 38204 ft 494 kts 262°
2026-05-05 14:16 55.50365 -39.90642 38210 ft 493 kts 259°
2026-05-05 14:17 55.49297 -40.02530 38198 ft 490 kts 255°
2026-05-05 14:17 55.47937 -40.14317 38203 ft 490 kts 252°
2026-05-05 14:18 55.46311 -40.25970 38204 ft 489 kts 251°
2026-05-05 14:18 55.44558 -40.37532 38193 ft 488 kts 250°
2026-05-05 14:19 55.42770 -40.49066 38204 ft 488 kts 250°
2026-05-05 14:19 55.40969 -40.60599 38197 ft 489 kts 250°
2026-05-05 14:20 55.39160 -40.72121 38190 ft 488 kts 250°
2026-05-05 14:20 55.37339 -40.83633 38202 ft 489 kts 250°
2026-05-05 14:21 55.35507 -40.95146 38190 ft 489 kts 250°
2026-05-05 14:21 55.33663 -41.06651 38191 ft 489 kts 249°
2026-05-05 14:22 55.31808 -41.18150 38197 ft 490 kts 249°
2026-05-05 14:22 55.29940 -41.29647 38183 ft 490 kts 249°
2026-05-05 14:23 55.28062 -41.41130 38192 ft 491 kts 249°
2026-05-05 14:23 55.26167 -41.52640 38189 ft 491 kts 249°
2026-05-05 14:24 55.24262 -41.64137 38181 ft 491 kts 249°
2026-05-05 14:24 55.22332 -41.75708 38192 ft 491 kts 249°
2026-05-05 14:25 55.20403 -41.87194 38181 ft 492 kts 249°
2026-05-05 14:25 55.18468 -41.98656 38181 ft 491 kts 249°
2026-05-05 14:26 55.16517 -42.10129 38190 ft 493 kts 249°
2026-05-05 14:26 55.14552 -42.21610 38175 ft 492 kts 249°
2026-05-05 14:27 55.12581 -42.33055 38180 ft 492 kts 249°
2026-05-05 14:27 55.10598 -42.44487 38182 ft 492 kts 248°
2026-05-05 14:28 55.08604 -42.55905 38170 ft 492 kts 248°
2026-05-05 14:28 55.06600 -42.67312 38182 ft 492 kts 248°
2026-05-05 14:29 55.04587 -42.78703 38173 ft 491 kts 248°
2026-05-05 14:29 55.02563 -42.90080 38170 ft 491 kts 248°
2026-05-05 14:30 55.00526 -43.01454 38179 ft 492 kts 248°
2026-05-05 14:30 54.98479 -43.12818 38166 ft 491 kts 248°
2026-05-05 14:31 54.96425 -43.24155 38170 ft 491 kts 248°
2026-05-05 14:31 54.94343 -43.35568 38173 ft 492 kts 248°
2026-05-05 14:32 54.92263 -43.46889 38161 ft 492 kts 248°
2026-05-05 14:32 54.90173 -43.58204 38172 ft 491 kts 248°
2026-05-05 14:33 54.88077 -43.69491 38164 ft 491 kts 248°
2026-05-05 14:33 54.85969 -43.80776 38160 ft 491 kts 247°
2026-05-05 14:34 54.83853 -43.92037 38170 ft 491 kts 247°
2026-05-05 14:34 54.81725 -44.03288 38157 ft 491 kts 247°
2026-05-05 14:35 54.79589 -44.14521 38161 ft 491 kts 247°
2026-05-05 14:35 54.77442 -44.25744 38164 ft 491 kts 247°
2026-05-05 14:36 54.75284 -44.36958 38151 ft 490 kts 247°
2026-05-05 14:36 54.73118 -44.48141 38162 ft 490 kts 247°
2026-05-05 14:37 54.70941 -44.59324 38156 ft 490 kts 247°
2026-05-05 14:37 54.68754 -44.70487 38149 ft 490 kts 246°
2026-05-05 14:38 54.66556 -44.81645 38160 ft 490 kts 246°
2026-05-05 14:38 54.64348 -44.92788 38148 ft 491 kts 246°
2026-05-05 14:39 54.62119 -45.03980 38149 ft 490 kts 246°
2026-05-05 14:39 54.59890 -45.15096 38155 ft 490 kts 246°
2026-05-05 14:40 54.57654 -45.26191 38142 ft 489 kts 246°
2026-05-05 14:40 54.55410 -45.37260 38148 ft 489 kts 246°
2026-05-05 14:41 54.53158 -45.48313 38141 ft 489 kts 246°
2026-05-05 14:41 54.50896 -45.59346 38100 ft 489 kts 246°
2026-05-05 14:42 54.48631 -45.70348 38066 ft 488 kts 246°
2026-05-05 14:42 54.46354 -45.81335 38048 ft 488 kts 246°
2026-05-05 14:43 54.44068 -45.92302 38040 ft 487 kts 246°
2026-05-05 14:43 54.41771 -46.03268 38052 ft 487 kts 246°
2026-05-05 14:44 54.39471 -46.14189 38042 ft 487 kts 246°
2026-05-05 14:44 54.37160 -46.25102 38040 ft 487 kts 246°
2026-05-05 14:45 54.34835 -46.36024 38049 ft 488 kts 245°
2026-05-05 14:45 54.32497 -46.46944 38036 ft 487 kts 245°
2026-05-05 14:46 54.30153 -46.57835 38043 ft 488 kts 245°
2026-05-05 14:46 54.27796 -46.68726 38043 ft 488 kts 245°
2026-05-05 14:47 54.25426 -46.79617 38034 ft 489 kts 245°
2026-05-05 14:47 54.23050 -46.90496 38045 ft 488 kts 245°
2026-05-05 14:48 54.21051 -46.99603 38039 ft 489 kts 245°
2026-05-05 14:48 54.18654 -47.10465 38032 ft 488 kts 245°
2026-05-05 14:49 54.16249 -47.21287 38044 ft 488 kts 245°
2026-05-05 14:49 54.13826 -47.32141 38032 ft 488 kts 245°
2026-05-05 14:50 54.11401 -47.42951 38034 ft 488 kts 245°
2026-05-05 14:50 54.08969 -47.53745 38040 ft 488 kts 245°
2026-05-05 14:51 54.06528 -47.64528 38027 ft 487 kts 245°
2026-05-05 14:51 54.04080 -47.75280 38036 ft 487 kts 245°
2026-05-05 14:52 54.01621 -47.86020 38011 ft 487 kts 245°
2026-05-05 14:52 53.99138 -47.96821 37974 ft 487 kts 245°
2026-05-05 14:53 53.96663 -48.07527 37938 ft 487 kts 244°
2026-05-05 14:53 53.94177 -48.18216 37904 ft 487 kts 244°
2026-05-05 14:54 53.91679 -48.28900 37869 ft 486 kts 244°
2026-05-05 14:54 53.89180 -48.39550 37835 ft 486 kts 244°
2026-05-05 14:55 53.86673 -48.50184 37800 ft 485 kts 244°
2026-05-05 14:55 53.84158 -48.60794 37765 ft 485 kts 244°
2026-05-05 14:56 53.81637 -48.71378 37731 ft 484 kts 244°
2026-05-05 14:56 53.79110 -48.81936 37697 ft 484 kts 244°
2026-05-05 14:57 53.76574 -48.92479 37663 ft 483 kts 244°
2026-05-05 14:57 53.74032 -49.02992 37629 ft 484 kts 244°
2026-05-05 14:58 53.71476 -49.13516 37595 ft 484 kts 244°
2026-05-05 14:58 53.68912 -49.24021 37557 ft 484 kts 244°
2026-05-05 14:59 53.66338 -49.34517 37530 ft 485 kts 244°
2026-05-05 14:59 53.63751 -49.45018 37513 ft 485 kts 244°
2026-05-05 15:00 53.61577 -49.53804 37503 ft 485 kts 244°
2026-05-05 15:00 53.58548 -49.65982 37507 ft 486 kts 244°
2026-05-05 15:01 53.55929 -49.76461 37500 ft 486 kts 244°
2026-05-05 15:01 53.53303 -49.86920 37491 ft 485 kts 243°
2026-05-05 15:02 53.50684 -49.97465 37499 ft 486 kts 244°
2026-05-05 15:02 53.48103 -50.07958 37488 ft 486 kts 244°
2026-05-05 15:03 53.45534 -50.18464 37483 ft 486 kts 244°
2026-05-05 15:03 53.42974 -50.28953 37490 ft 486 kts 244°
2026-05-05 15:04 53.40408 -50.39427 37476 ft 485 kts 244°
2026-05-05 15:04 53.37840 -50.49862 37477 ft 485 kts 244°
2026-05-05 15:05 53.33968 -50.65499 37474 ft 484 kts 244°
2026-05-05 15:06 53.31380 -50.75887 37483 ft 484 kts 244°
2026-05-05 15:06 53.28781 -50.86276 37477 ft 484 kts 244°
2026-05-05 15:07 53.26175 -50.96643 37468 ft 483 kts 244°
2026-05-05 15:07 53.23558 -51.07001 37478 ft 484 kts 244°
2026-05-05 15:08 53.20933 -51.17339 37466 ft 483 kts 244°
2026-05-05 15:08 53.18302 -51.27657 37462 ft 484 kts 244°
2026-05-05 15:09 53.15661 -51.37977 37470 ft 484 kts 244°
2026-05-05 15:09 53.13009 -51.48292 37456 ft 484 kts 244°
2026-05-05 15:10 53.10351 -51.58577 37460 ft 483 kts 244°
2026-05-05 15:10 53.07669 -51.68909 37461 ft 483 kts 244°
2026-05-05 15:11 53.04994 -51.79163 37449 ft 484 kts 244°
2026-05-05 15:11 53.02310 -51.89409 37459 ft 483 kts 244°
2026-05-05 15:12 52.99618 -51.99638 37450 ft 483 kts 244°
2026-05-05 15:12 52.96917 -52.09846 37445 ft 483 kts 244°
2026-05-05 15:13 52.94209 -52.20045 37455 ft 483 kts 244°
2026-05-05 15:13 52.91496 -52.30217 37441 ft 482 kts 244°
2026-05-05 15:14 52.88773 -52.40372 37445 ft 482 kts 244°
2026-05-05 15:14 52.86046 -52.50505 37447 ft 482 kts 244°
2026-05-05 15:15 52.83311 -52.60623 37435 ft 481 kts 244°
2026-05-05 15:15 52.80574 -52.70700 37447 ft 478 kts 245°
2026-05-05 15:16 52.77856 -52.80673 37456 ft 476 kts 245°
2026-05-05 15:16 52.75125 -52.90643 37475 ft 477 kts 245°
2026-05-05 15:17 52.72386 -53.00602 37469 ft 476 kts 244°
2026-05-05 15:17 52.69641 -53.10537 37461 ft 476 kts 244°
2026-05-05 15:18 52.66870 -53.20529 37470 ft 476 kts 244°
2026-05-05 15:18 52.64111 -53.30431 37457 ft 476 kts 244°
2026-05-05 15:19 52.61346 -53.40311 37460 ft 475 kts 244°
2026-05-05 15:19 52.58571 -53.50185 37460 ft 475 kts 244°
2026-05-05 15:20 52.56262 -53.58371 37447 ft 475 kts 244°
2026-05-05 15:20 52.53476 -53.68208 37452 ft 475 kts 244°
2026-05-05 15:21 52.50688 -53.78015 37452 ft 473 kts 244°
2026-05-05 15:21 52.47894 -53.87799 37441 ft 473 kts 244°
2026-05-05 15:22 52.45093 -53.97567 37453 ft 473 kts 244°
2026-05-05 15:22 52.42287 -54.07314 37442 ft 472 kts 244°
2026-05-05 15:23 52.39475 -54.17040 37441 ft 472 kts 244°
2026-05-05 15:23 52.36638 -54.26816 37448 ft 473 kts 244°
2026-05-05 15:24 52.33810 -54.36517 37435 ft 472 kts 244°
2026-05-05 15:24 52.30974 -54.46205 37442 ft 472 kts 244°
2026-05-05 15:25 52.28128 -54.55883 37441 ft 474 kts 244°
2026-05-05 15:25 52.25267 -54.65572 37458 ft 474 kts 244°
2026-05-05 15:26 52.22402 -54.75245 37467 ft 474 kts 244°
2026-05-05 15:26 52.19530 -54.84907 37453 ft 473 kts 244°
2026-05-05 15:27 52.16654 -54.94540 37456 ft 472 kts 244°
2026-05-05 15:27 52.13772 -55.04145 37458 ft 472 kts 244°
2026-05-05 15:28 52.10988 -55.13818 37439 ft 471 kts 249°
2026-05-05 15:28 52.08959 -55.23946 37456 ft 471 kts 253°
2026-05-05 15:29 52.07210 -55.34200 37441 ft 470 kts 255°
2026-05-05 15:29 52.05532 -55.44461 37449 ft 469 kts 255°
2026-05-05 15:30 52.03864 -55.54702 37446 ft 469 kts 255°
2026-05-05 15:30 52.02191 -55.64918 37436 ft 467 kts 255°
2026-05-05 15:31 52.00509 -55.75118 37450 ft 468 kts 255°
2026-05-05 15:31 51.98812 -55.85357 37442 ft 466 kts 255°
2026-05-05 15:32 51.97120 -55.95516 37444 ft 467 kts 255°
2026-05-05 15:32 51.95418 -56.05668 37456 ft 467 kts 255°
2026-05-05 15:33 51.93706 -56.15820 37459 ft 467 kts 254°
2026-05-05 15:33 51.91985 -56.25961 37474 ft 467 kts 254°
2026-05-05 15:34 51.90255 -56.36094 37478 ft 467 kts 254°
2026-05-05 15:34 51.88515 -56.46210 37482 ft 466 kts 254°
2026-05-05 15:35 51.86767 -56.56331 37496 ft 467 kts 254°
2026-05-05 15:35 51.85021 -56.66393 37499 ft 466 kts 254°
2026-05-05 15:36 51.83262 -56.76478 37516 ft 466 kts 254°
2026-05-05 15:36 51.81488 -56.86577 37525 ft 467 kts 254°
2026-05-05 15:37 51.79707 -56.96666 37521 ft 467 kts 254°
2026-05-05 15:37 51.77913 -57.06758 37535 ft 468 kts 254°
2026-05-05 15:38 51.76109 -57.16852 37540 ft 468 kts 254°
2026-05-05 15:38 51.74286 -57.27004 37538 ft 468 kts 254°
2026-05-05 15:39 51.72466 -57.37084 37549 ft 468 kts 253°
2026-05-05 15:39 51.70631 -57.47181 37538 ft 469 kts 253°
2026-05-05 15:40 51.68787 -57.57279 37541 ft 470 kts 253°
2026-05-05 15:40 51.66931 -57.67387 37546 ft 470 kts 253°
2026-05-05 15:41 51.65067 -57.77477 37533 ft 470 kts 253°
2026-05-05 15:41 51.63197 -57.87561 37543 ft 470 kts 253°
2026-05-05 15:42 51.61317 -57.97637 37538 ft 470 kts 253°
2026-05-05 15:42 51.59427 -58.07704 37530 ft 470 kts 253°
2026-05-05 15:43 51.57531 -58.17753 37544 ft 470 kts 253°
2026-05-05 15:43 51.55629 -58.27778 37535 ft 468 kts 253°
2026-05-05 15:44 51.53721 -58.37782 37532 ft 468 kts 253°
2026-05-05 15:44 51.51806 -58.47778 37541 ft 468 kts 253°
2026-05-05 15:45 51.49866 -58.57832 37528 ft 468 kts 253°
2026-05-05 15:45 51.47938 -58.67784 37534 ft 467 kts 253°
2026-05-05 15:46 51.46002 -58.77727 37538 ft 467 kts 253°
2026-05-05 15:46 51.44060 -58.87650 37552 ft 466 kts 253°
2026-05-05 15:47 51.42112 -58.97546 37572 ft 466 kts 253°
2026-05-05 15:47 51.40157 -59.07434 37583 ft 465 kts 253°
2026-05-05 15:48 51.38195 -59.17296 37573 ft 465 kts 253°
2026-05-05 15:48 51.36227 -59.27141 37583 ft 464 kts 253°
2026-05-05 15:49 51.34252 -59.36982 37587 ft 465 kts 253°
2026-05-05 15:49 51.32270 -59.46814 37579 ft 464 kts 253°
2026-05-05 15:50 51.30278 -59.56636 37593 ft 464 kts 253°
2026-05-05 15:50 51.28274 -59.66449 37592 ft 465 kts 253°
2026-05-05 15:51 51.26266 -59.76252 37590 ft 464 kts 253°
2026-05-05 15:51 51.24252 -59.86041 37604 ft 463 kts 253°
2026-05-05 15:52 51.22233 -59.95803 37599 ft 463 kts 252°
2026-05-05 15:52 51.20205 -60.05551 37606 ft 462 kts 253°
2026-05-05 15:53 51.18504 -60.13689 37614 ft 461 kts 253°
2026-05-05 15:53 51.16470 -60.23383 37607 ft 461 kts 253°
2026-05-05 15:54 51.14429 -60.33075 37618 ft 461 kts 253°
2026-05-05 15:54 51.12381 -60.42747 37624 ft 460 kts 253°
2026-05-05 15:55 51.10327 -60.52395 37617 ft 460 kts 252°
2026-05-05 15:55 51.08266 -60.62031 37632 ft 460 kts 252°
2026-05-05 15:56 51.06202 -60.71640 37633 ft 459 kts 252°
2026-05-05 15:56 51.04133 -60.81223 37632 ft 459 kts 252°
2026-05-05 15:57 51.02047 -60.90808 37650 ft 459 kts 252°
2026-05-05 15:57 50.99968 -61.00365 37637 ft 458 kts 252°
2026-05-05 15:58 50.97880 -61.09925 37657 ft 458 kts 252°
2026-05-05 15:58 50.95790 -61.19441 37634 ft 456 kts 252°
2026-05-05 15:59 50.93671 -61.29019 37665 ft 459 kts 252°
2026-05-05 15:59 50.91571 -61.38538 37647 ft 457 kts 252°
2026-05-05 16:00 50.89444 -61.48032 37661 ft 458 kts 252°
2026-05-05 16:00 50.87314 -61.57519 37663 ft 457 kts 252°
2026-05-05 16:01 50.85186 -61.66974 37665 ft 455 kts 252°
2026-05-05 16:01 50.83056 -61.76433 37678 ft 457 kts 252°
2026-05-05 16:02 50.80915 -61.85853 37661 ft 453 kts 252°
2026-05-05 16:02 50.78770 -61.95255 37679 ft 455 kts 252°
2026-05-05 16:03 50.76615 -62.04663 37666 ft 453 kts 252°
2026-05-05 16:03 50.74471 -62.13985 37677 ft 452 kts 252°
2026-05-05 16:04 50.72318 -62.23325 37667 ft 453 kts 252°
2026-05-05 16:04 50.70154 -62.32647 37669 ft 452 kts 252°
2026-05-05 16:05 50.67984 -62.41964 37674 ft 453 kts 252°
2026-05-05 16:05 50.65808 -62.51267 37655 ft 452 kts 252°
2026-05-05 16:06 50.63619 -62.60548 37677 ft 452 kts 252°
2026-05-05 16:06 50.61416 -62.69882 37667 ft 452 kts 252°
2026-05-05 16:07 50.59217 -62.79138 37664 ft 451 kts 252°
2026-05-05 16:07 50.57012 -62.88390 37665 ft 451 kts 251°
2026-05-05 16:08 50.54817 -62.97597 37647 ft 450 kts 251°
2026-05-05 16:08 50.52608 -63.06791 37667 ft 449 kts 251°
2026-05-05 16:09 50.50392 -63.15963 37674 ft 450 kts 251°
2026-05-05 16:09 50.48184 -63.25114 37652 ft 447 kts 251°
2026-05-05 16:10 50.45965 -63.34239 37663 ft 447 kts 251°
2026-05-05 16:10 50.43743 -63.43330 37658 ft 446 kts 251°
2026-05-05 16:11 50.41517 -63.52389 37664 ft 445 kts 251°
2026-05-05 16:12 50.37056 -63.70474 37657 ft 442 kts 251°
2026-05-05 16:13 50.31471 -63.92904 37654 ft 442 kts 251°
2026-05-05 16:13 50.29218 -64.01861 37666 ft 443 kts 251°
2026-05-05 16:14 50.24716 -64.19734 37659 ft 442 kts 251°
2026-05-05 16:15 50.20185 -64.37559 37651 ft 442 kts 251°
2026-05-05 16:16 50.15601 -64.55456 37651 ft 443 kts 250°
2026-05-05 16:17 50.12165 -64.68787 37657 ft 441 kts 250°
2026-05-05 16:18 50.08712 -64.82072 37782 ft 441 kts 250°
2026-05-05 16:18 50.06388 -64.91004 38252 ft 449 kts 249°
2026-05-05 16:19 50.05206 -64.95520 38549 ft 451 kts 249°
2026-05-05 16:19 50.04018 -65.00047 38886 ft 453 kts 249°
2026-05-05 16:19 50.01642 -65.09076 39473 ft 457 kts 248°
2026-05-05 16:20 49.99199 -65.18337 39632 ft 457 kts 248°
2026-05-05 16:20 49.96812 -65.27326 39622 ft 444 kts 248°
2026-05-05 16:22 49.90844 -65.49684 39610 ft 449 kts 248°
2026-05-05 16:23 49.86028 -65.67590 39619 ft 451 kts 248°
2026-05-05 16:23 49.82384 -65.81022 39617 ft 451 kts 248°
2026-05-05 16:24 49.79947 -65.90006 39611 ft 453 kts 248°
2026-05-05 16:25 49.76271 -66.03428 39606 ft 450 kts 247°
2026-05-05 16:25 49.72568 -66.16915 39610 ft 449 kts 247°
2026-05-05 16:26 49.68053 -66.33200 39613 ft 452 kts 247°
2026-05-05 16:27 49.65583 -66.42064 39598 ft 448 kts 247°
2026-05-05 16:27 49.63109 -66.50896 39600 ft 448 kts 247°
2026-05-05 16:28 49.60638 -66.59717 39605 ft 447 kts 246°
2026-05-05 16:28 49.58166 -66.68509 39594 ft 446 kts 246°
2026-05-05 16:29 49.55685 -66.77278 39597 ft 446 kts 246°
2026-05-05 16:29 49.53200 -66.86036 39595 ft 446 kts 246°
2026-05-05 16:30 49.50711 -66.94774 39589 ft 446 kts 246°
2026-05-05 16:30 49.48209 -67.03520 39605 ft 446 kts 246°
2026-05-05 16:31 49.45708 -67.12266 39583 ft 443 kts 246°
2026-05-05 16:31 49.43214 -67.20942 39592 ft 445 kts 246°
2026-05-05 16:32 49.40702 -67.29645 39584 ft 445 kts 246°
2026-05-05 16:32 49.38186 -67.38323 39586 ft 443 kts 246°
2026-05-05 16:33 49.35673 -67.46945 39573 ft 444 kts 246°
2026-05-05 16:33 49.33129 -67.55655 39586 ft 449 kts 245°
2026-05-05 16:34 49.30602 -67.64298 39551 ft 439 kts 246°
2026-05-05 16:34 49.28086 -67.72851 39575 ft 444 kts 246°
2026-05-05 16:35 49.25535 -67.81491 39560 ft 445 kts 245°
2026-05-05 16:35 49.22987 -67.90097 39554 ft 442 kts 246°
2026-05-05 16:36 49.20447 -67.98668 39568 ft 442 kts 245°
2026-05-05 16:36 49.17892 -68.07207 39568 ft 441 kts 245°
2026-05-05 16:37 49.15353 -68.15749 39559 ft 441 kts 246°
2026-05-05 16:37 49.12969 -68.24348 39543 ft 439 kts 247°
2026-05-05 16:38 49.10643 -68.32987 39570 ft 441 kts 248°
2026-05-05 16:38 49.08360 -68.41699 39583 ft 442 kts 248°
2026-05-05 16:39 49.06126 -68.50355 39545 ft 436 kts 248°
2026-05-05 16:39 49.03856 -68.59053 39561 ft 442 kts 247°
2026-05-05 16:40 49.01598 -68.67706 39536 ft 435 kts 248°
2026-05-05 16:40 48.99359 -68.76235 39548 ft 436 kts 248°
2026-05-05 16:41 48.97096 -68.84791 39576 ft 433 kts 248°
2026-05-05 16:41 48.94861 -68.93284 39561 ft 433 kts 247°
2026-05-05 16:42 48.92597 -69.01860 39559 ft 437 kts 247°
2026-05-05 16:42 48.90335 -69.10339 39530 ft 431 kts 247°
2026-05-05 16:43 48.88065 -69.18820 39561 ft 436 kts 247°
2026-05-05 16:43 48.85785 -69.27316 39546 ft 432 kts 247°
2026-05-05 16:44 48.83512 -69.35739 39533 ft 430 kts 247°
2026-05-05 16:44 48.81233 -69.44150 39561 ft 432 kts 247°
2026-05-05 16:45 48.78954 -69.52567 39548 ft 430 kts 247°
2026-05-05 16:45 48.76675 -69.60940 39533 ft 429 kts 246°
2026-05-05 16:46 48.74402 -69.69288 39528 ft 429 kts 246°
2026-05-05 16:46 48.72119 -69.77612 39524 ft 427 kts 246°
2026-05-05 16:47 48.69830 -69.85900 39522 ft 427 kts 246°
2026-05-05 16:47 48.67545 -69.94186 39518 ft 426 kts 246°
2026-05-05 16:48 48.65245 -70.02499 39508 ft 425 kts 246°
2026-05-05 16:48 48.62960 -70.10725 39510 ft 425 kts 246°
2026-05-05 16:49 48.60656 -70.18973 39504 ft 425 kts 246°
2026-05-05 16:49 48.58360 -70.27186 39500 ft 425 kts 246°
2026-05-05 16:50 48.56048 -70.35401 39502 ft 425 kts 246°
2026-05-05 16:50 48.53733 -70.43626 39501 ft 427 kts 246°
2026-05-05 16:51 48.51406 -70.51859 39484 ft 425 kts 245°
2026-05-05 16:51 48.49069 -70.60072 39491 ft 428 kts 245°
2026-05-05 16:52 48.46716 -70.68325 39491 ft 428 kts 246°
2026-05-05 16:52 48.44369 -70.76550 39487 ft 428 kts 245°
2026-05-05 16:53 48.42008 -70.84785 39482 ft 429 kts 245°
2026-05-05 16:53 48.39633 -70.93030 39475 ft 429 kts 245°
2026-05-05 16:54 48.37248 -71.01294 39484 ft 432 kts 245°
2026-05-05 16:54 48.34783 -71.09516 39474 ft 431 kts 243°
2026-05-05 16:55 48.32021 -71.17513 39478 ft 431 kts 242°
2026-05-05 16:55 48.29134 -71.25413 39495 ft 432 kts 240°
2026-05-05 16:56 48.26141 -71.33297 39476 ft 431 kts 240°
2026-05-05 16:56 48.23131 -71.41112 39493 ft 433 kts 240°
2026-05-05 16:57 48.20106 -71.48905 39492 ft 432 kts 240°
2026-05-05 16:57 48.17062 -71.56678 39497 ft 433 kts 240°
2026-05-05 16:58 48.14026 -71.64440 39489 ft 432 kts 240°
2026-05-05 16:58 48.10991 -71.72180 39488 ft 431 kts 240°
2026-05-05 16:59 48.08460 -71.78615 39503 ft 432 kts 240°
2026-05-05 16:59 48.05404 -71.86359 39485 ft 432 kts 240°
2026-05-05 17:00 48.02345 -71.94089 39499 ft 432 kts 239°
2026-05-05 17:00 47.99273 -72.01815 39510 ft 432 kts 239°
2026-05-05 17:01 47.96203 -72.09533 39494 ft 432 kts 239°
2026-05-05 17:01 47.93133 -72.17220 39510 ft 431 kts 239°
2026-05-05 17:02 47.90054 -72.24910 39510 ft 433 kts 239°
2026-05-05 17:02 47.86952 -72.32636 39502 ft 431 kts 239°
2026-05-05 17:03 47.83965 -72.40065 39519 ft 431 kts 239°
2026-05-05 17:03 47.80869 -72.47733 39525 ft 432 kts 239°
2026-05-05 17:04 47.77779 -72.55368 39506 ft 429 kts 239°
2026-05-05 17:04 47.74700 -72.62959 39524 ft 429 kts 239°
2026-05-05 17:05 47.71608 -72.70539 39541 ft 430 kts 239°
2026-05-05 17:05 47.68515 -72.78118 39516 ft 429 kts 239°
2026-05-05 17:06 47.65419 -72.85661 39504 ft 427 kts 239°
2026-05-05 17:06 47.62329 -72.93187 39532 ft 428 kts 239°
2026-05-05 17:07 47.59227 -73.00715 39513 ft 428 kts 239°
2026-05-05 17:07 47.56126 -73.08237 39528 ft 428 kts 239°
2026-05-05 17:08 47.53022 -73.15728 39518 ft 426 kts 239°
2026-05-05 17:08 47.49912 -73.23213 39534 ft 428 kts 239°
2026-05-05 17:09 47.46803 -73.30697 39522 ft 426 kts 239°
2026-05-05 17:09 47.43696 -73.38148 39532 ft 426 kts 239°
2026-05-05 17:10 47.40546 -73.45656 39532 ft 427 kts 239°
2026-05-05 17:10 47.37415 -73.53106 39521 ft 426 kts 239°
2026-05-05 17:11 47.34289 -73.60544 39546 ft 427 kts 239°
2026-05-05 17:11 47.31150 -73.67982 39536 ft 427 kts 238°
2026-05-05 17:12 47.27998 -73.75403 39550 ft 427 kts 238°
2026-05-05 17:12 47.24846 -73.82822 39536 ft 427 kts 238°
2026-05-05 17:13 47.21703 -73.90218 39530 ft 426 kts 238°
2026-05-05 17:13 47.18563 -73.97598 39519 ft 426 kts 238°
2026-05-05 17:14 47.15408 -74.04968 39521 ft 427 kts 238°
2026-05-05 17:14 47.12241 -74.12344 39514 ft 425 kts 238°
2026-05-05 17:15 47.09086 -74.19682 39509 ft 425 kts 238°
2026-05-05 17:15 47.05920 -74.27023 39528 ft 426 kts 238°
2026-05-05 17:16 47.02746 -74.34348 39509 ft 424 kts 238°
2026-05-05 17:16 46.99582 -74.41637 39526 ft 424 kts 238°
2026-05-05 17:17 46.96420 -74.48921 39538 ft 423 kts 238°
2026-05-05 17:17 46.93246 -74.56209 39523 ft 425 kts 238°
2026-05-05 17:18 46.90071 -74.63461 39545 ft 424 kts 238°
2026-05-05 17:18 46.86893 -74.70731 39535 ft 423 kts 238°
2026-05-05 17:19 46.83711 -74.77972 39532 ft 423 kts 238°
2026-05-05 17:19 46.80530 -74.85188 39544 ft 422 kts 238°
2026-05-05 17:20 46.77346 -74.92402 39534 ft 423 kts 238°
2026-05-05 17:20 46.74160 -74.99599 39538 ft 422 kts 238°
2026-05-05 17:21 46.70954 -75.06821 39544 ft 421 kts 238°
2026-05-05 17:22 46.66169 -75.17564 39538 ft 421 kts 238°
2026-05-05 17:22 46.62982 -75.24699 39546 ft 420 kts 238°
2026-05-05 17:23 46.59791 -75.31823 39535 ft 420 kts 238°
2026-05-05 17:23 46.56604 -75.38910 39530 ft 418 kts 238°
2026-05-05 17:24 46.53417 -75.45969 39528 ft 419 kts 238°
2026-05-05 17:24 46.51825 -75.49507 39631 ft 418 kts 238°
2026-05-05 17:24 46.50223 -75.53076 39546 ft 424 kts 238°
2026-05-05 17:25 46.47031 -75.60127 39512 ft 412 kts 238°
2026-05-05 17:25 46.43878 -75.67076 39545 ft 414 kts 238°
2026-05-05 17:26 46.40701 -75.74060 39562 ft 415 kts 238°
2026-05-05 17:26 46.37521 -75.81034 39558 ft 414 kts 238°
2026-05-05 17:27 46.34350 -75.87970 39568 ft 413 kts 238°
2026-05-05 17:27 46.31169 -75.94910 39567 ft 413 kts 238°
2026-05-05 17:28 46.27995 -76.01818 39560 ft 412 kts 238°
2026-05-05 17:28 46.24796 -76.08766 39574 ft 413 kts 238°
2026-05-05 17:29 46.21610 -76.15667 39564 ft 413 kts 238°
2026-05-05 17:29 46.18423 -76.22554 39570 ft 413 kts 238°
2026-05-05 17:30 46.15229 -76.29439 39578 ft 413 kts 238°
2026-05-05 17:30 46.12028 -76.36322 39567 ft 413 kts 238°
2026-05-05 17:31 46.08822 -76.43198 39580 ft 414 kts 238°
2026-05-05 17:31 46.05602 -76.50089 39582 ft 415 kts 238°
2026-05-05 17:32 46.02366 -76.56989 39574 ft 420 kts 237°
2026-05-05 17:32 45.99651 -76.62784 39601 ft 420 kts 237°
2026-05-05 17:33 45.96428 -76.69619 39499 ft 405 kts 237°
2026-05-05 17:33 45.93303 -76.76231 39568 ft 403 kts 238°
2026-05-05 17:34 45.90101 -76.83003 39606 ft 417 kts 237°
2026-05-05 17:34 45.86842 -76.89888 39600 ft 414 kts 237°
2026-05-05 17:35 45.83588 -76.96739 39595 ft 413 kts 237°
2026-05-05 17:35 45.80346 -77.03546 39608 ft 414 kts 237°
2026-05-05 17:36 45.77096 -77.10354 39596 ft 413 kts 237°
2026-05-05 17:36 45.73857 -77.17128 39600 ft 413 kts 237°
2026-05-05 17:37 45.70600 -77.23917 39608 ft 414 kts 237°
2026-05-05 17:37 45.67344 -77.30680 39597 ft 412 kts 237°
2026-05-05 17:38 45.64088 -77.37432 39612 ft 413 kts 237°
2026-05-05 17:38 45.62458 -77.40807 39353 ft 413 kts 237°
2026-05-05 17:38 45.60734 -77.44073 38853 ft 410 kts 233°
2026-05-05 17:38 45.58915 -77.47183 38283 ft 404 kts 232°
2026-05-05 17:39 45.57097 -77.50198 37756 ft 397 kts 232°
2026-05-05 17:39 45.55284 -77.53121 37263 ft 389 kts 232°
2026-05-05 17:39 45.53484 -77.55953 36796 ft 382 kts 231°
2026-05-05 17:39 45.51684 -77.58727 36327 ft 380 kts 231°
2026-05-05 17:40 45.49873 -77.61484 35856 ft 382 kts 231°
2026-05-05 17:40 45.48043 -77.64247 35367 ft 384 kts 231°
2026-05-05 17:40 45.46199 -77.67012 34864 ft 384 kts 232°
2026-05-05 17:40 45.44360 -77.69758 34367 ft 382 kts 232°
2026-05-05 17:41 45.42529 -77.72481 33892 ft 379 kts 232°
2026-05-05 17:41 45.40706 -77.75192 33425 ft 379 kts 232°
2026-05-05 17:41 45.38875 -77.77913 32953 ft 382 kts 231°
2026-05-05 17:41 45.37027 -77.80655 32470 ft 385 kts 231°
2026-05-05 17:42 45.35167 -77.83409 31973 ft 388 kts 231°
2026-05-05 17:42 45.33291 -77.86183 31475 ft 390 kts 231°
2026-05-05 17:42 45.31409 -77.88960 30976 ft 388 kts 230°
2026-05-05 17:42 45.29519 -77.91742 30483 ft 384 kts 230°
2026-05-05 17:43 45.27676 -77.94454 30007 ft 379 kts 230°
2026-05-05 17:43 45.25854 -77.97134 29536 ft 376 kts 230°
2026-05-05 17:43 45.24039 -77.99802 29066 ft 374 kts 230°
2026-05-05 17:43 45.22238 -78.02444 28594 ft 371 kts 230°
2026-05-05 17:44 45.20453 -78.05062 28119 ft 367 kts 230°
2026-05-05 17:44 45.18683 -78.07657 27651 ft 364 kts 230°
2026-05-05 17:44 45.16930 -78.10224 27197 ft 361 kts 230°
2026-05-05 17:44 45.15186 -78.12776 26750 ft 360 kts 230°
2026-05-05 17:45 45.13388 -78.15239 26264 ft 361 kts 225°
2026-05-05 17:45 45.12103 -78.16725 25934 ft 362 kts 224°
2026-05-05 17:45 45.11682 -78.17195 25828 ft 362 kts 223°
2026-05-05 17:46 45.09693 -78.19361 25398 ft 359 kts 223°
2026-05-05 17:46 45.07706 -78.21475 25031 ft 355 kts 222°
2026-05-05 17:46 45.05729 -78.23551 24682 ft 354 kts 222°
2026-05-05 17:46 45.03745 -78.25621 24342 ft 355 kts 221°
2026-05-05 17:47 45.01760 -78.27683 24003 ft 354 kts 221°
2026-05-05 17:47 44.99778 -78.29732 23664 ft 352 kts 221°
2026-05-05 17:47 44.98216 -78.31344 23399 ft 351 kts 221°
2026-05-05 17:47 44.96246 -78.33370 23067 ft 350 kts 221°
2026-05-05 17:48 44.94285 -78.35384 22744 ft 347 kts 221°
2026-05-05 17:48 44.92335 -78.37384 22422 ft 347 kts 221°
2026-05-05 17:48 44.90386 -78.39382 22098 ft 345 kts 220°
2026-05-05 17:48 44.88446 -78.41368 21775 ft 344 kts 220°
2026-05-05 17:49 44.86513 -78.43344 21451 ft 343 kts 220°
2026-05-05 17:49 44.84588 -78.45313 21128 ft 341 kts 220°
2026-05-05 17:49 44.82668 -78.47272 20806 ft 340 kts 220°
2026-05-05 17:49 44.80757 -78.49222 20485 ft 338 kts 220°
2026-05-05 17:50 44.78855 -78.51160 20165 ft 337 kts 220°
2026-05-05 17:50 44.76958 -78.53092 19846 ft 335 kts 220°
2026-05-05 17:50 44.75072 -78.55010 19529 ft 334 kts 220°
2026-05-05 17:50 44.73193 -78.56921 19214 ft 333 kts 220°
2026-05-05 17:51 44.71322 -78.58820 18899 ft 331 kts 219°
2026-05-05 17:51 44.69477 -78.60693 18589 ft 329 kts 219°
2026-05-05 17:51 44.67619 -78.62578 18277 ft 328 kts 219°
2026-05-05 17:51 44.65745 -78.64478 17962 ft 327 kts 219°
2026-05-05 17:52 44.63900 -78.66344 17652 ft 326 kts 219°
2026-05-05 17:52 44.62066 -78.68198 17344 ft 324 kts 219°
2026-05-05 17:52 44.60244 -78.70039 17058 ft 322 kts 219°
2026-05-05 17:52 44.58436 -78.71866 16851 ft 319 kts 219°
2026-05-05 17:53 44.56632 -78.73688 16612 ft 320 kts 219°
2026-05-05 17:53 44.54823 -78.75513 16346 ft 320 kts 219°
2026-05-05 17:53 44.53014 -78.77337 16064 ft 320 kts 219°
2026-05-05 17:53 44.51212 -78.79151 15773 ft 317 kts 219°
2026-05-05 17:54 44.49425 -78.80947 15480 ft 315 kts 219°
2026-05-05 17:54 44.47646 -78.82733 15188 ft 314 kts 219°
2026-05-05 17:54 44.45877 -78.84508 14896 ft 313 kts 219°
2026-05-05 17:54 44.44112 -78.86279 14601 ft 311 kts 219°
2026-05-05 17:55 44.42358 -78.88040 14312 ft 310 kts 219°
2026-05-05 17:55 44.40611 -78.89792 14018 ft 308 kts 219°
2026-05-05 17:55 44.38874 -78.91534 13727 ft 307 kts 219°
2026-05-05 17:55 44.37145 -78.93267 13435 ft 305 kts 219°
2026-05-05 17:56 44.35435 -78.94974 13146 ft 297 kts 219°
2026-05-05 17:56 44.33783 -78.96619 12882 ft 286 kts 220°
2026-05-05 17:56 44.32180 -78.98219 12693 ft 285 kts 220°
2026-05-05 17:56 44.30529 -78.99872 12483 ft 296 kts 219°
2026-05-05 17:57 44.28881 -79.01514 12191 ft 284 kts 219°
2026-05-05 17:57 44.27339 -79.03044 11928 ft 263 kts 220°
2026-05-05 17:57 44.25892 -79.04481 11709 ft 244 kts 220°
2026-05-05 17:57 44.24574 -79.05827 11499 ft 226 kts 225°
2026-05-05 17:58 44.23544 -79.07368 11319 ft 210 kts 231°
2026-05-05 17:58 44.22604 -79.08846 11139 ft 199 kts 231°
2026-05-05 17:58 44.21690 -79.10272 10965 ft 198 kts 231°
2026-05-05 17:58 44.20750 -79.11728 10827 ft 206 kts 231°
2026-05-05 17:59 44.19774 -79.13230 10590 ft 211 kts 230°
2026-05-05 17:59 44.18777 -79.14749 10334 ft 213 kts 230°
2026-05-05 17:59 44.17782 -79.16259 10128 ft 210 kts 230°
2026-05-05 17:59 44.16803 -79.17741 9955 ft 207 kts 230°
2026-05-05 18:00 44.15829 -79.19215 9768 ft 207 kts 231°
2026-05-05 18:00 44.14851 -79.20692 9582 ft 208 kts 231°
2026-05-05 18:00 44.13864 -79.22181 9376 ft 209 kts 231°
2026-05-05 18:00 44.12881 -79.23662 9189 ft 205 kts 231°
2026-05-05 18:01 44.11935 -79.25088 9012 ft 201 kts 231°
2026-05-05 18:01 44.10963 -79.26554 8799 ft 209 kts 231°
2026-05-05 18:01 44.09971 -79.28050 8555 ft 210 kts 231°
2026-05-05 18:01 44.08965 -79.29563 8334 ft 210 kts 231°
2026-05-05 18:02 44.07980 -79.31014 8130 ft 209 kts 229°
2026-05-05 18:02 44.06673 -79.31893 7838 ft 211 kts 199°
2026-05-05 18:02 44.05243 -79.31928 7737 ft 204 kts 189°
2026-05-05 18:02 44.03814 -79.31908 7555 ft 206 kts 188°
2026-05-05 18:03 44.02381 -79.31851 7288 ft 206 kts 187°
2026-05-05 18:03 44.00968 -79.31775 7045 ft 206 kts 187°
2026-05-05 18:03 43.99538 -79.31684 6804 ft 206 kts 186°
2026-05-05 18:03 43.98114 -79.31581 6583 ft 205 kts 186°
2026-05-05 18:04 43.96694 -79.31473 6384 ft 205 kts 185°
2026-05-05 18:04 43.95272 -79.31364 6175 ft 204 kts 185°
2026-05-05 18:04 43.93856 -79.31252 5951 ft 203 kts 185°
2026-05-05 18:04 43.92445 -79.31144 5706 ft 203 kts 185°
2026-05-05 18:05 43.91035 -79.31033 5470 ft 203 kts 184°
2026-05-05 18:05 43.90102 -79.30958 5326 ft 203 kts 184°
2026-05-05 18:05 43.88688 -79.30841 5130 ft 203 kts 184°
2026-05-05 18:05 43.87324 -79.31116 4809 ft 196 kts 206°
2026-05-05 18:06 43.86349 -79.32352 4654 ft 190 kts 233°
2026-05-05 18:06 43.85777 -79.33288 4590 ft 187 kts 232°
2026-05-05 18:06 43.84701 -79.35128 4370 ft 184 kts 233°
2026-05-05 18:06 43.83866 -79.36474 4175 ft 176 kts 231°
2026-05-05 18:07 43.83059 -79.37704 4034 ft 170 kts 230°
2026-05-05 18:07 43.82255 -79.38892 3870 ft 168 kts 229°
2026-05-05 18:07 43.81447 -79.40043 3681 ft 166 kts 228°
2026-05-05 18:07 43.80638 -79.41179 3507 ft 165 kts 228°
2026-05-05 18:08 43.79839 -79.42331 3377 ft 166 kts 229°
2026-05-05 18:08 43.79057 -79.43495 3266 ft 165 kts 230°
2026-05-05 18:08 43.78279 -79.44668 3099 ft 166 kts 230°
2026-05-05 18:08 43.77486 -79.45834 2884 ft 167 kts 229°
2026-05-05 18:09 43.76672 -79.46986 2709 ft 167 kts 228°
2026-05-05 18:09 43.75860 -79.48136 2571 ft 168 kts 228°
2026-05-05 18:09 43.75056 -79.49308 2449 ft 168 kts 229°
2026-05-05 18:09 43.74261 -79.50492 2328 ft 168 kts 230°
2026-05-05 18:10 43.73464 -79.51666 2167 ft 167 kts 229°
2026-05-05 18:10 43.72691 -79.52786 1951 ft 155 kts 229°
2026-05-05 18:10 43.71963 -79.53827 1747 ft 147 kts 230°
2026-05-05 18:10 43.71264 -79.54839 1562 ft 144 kts 230°
2026-05-05 18:11 43.70582 -79.55835 1375 ft 141 kts 230°
2026-05-05 18:11 43.69912 -79.56816 1191 ft 140 kts 230°
2026-05-05 18:11 43.69244 -79.57786 1006 ft 139 kts 230°
2026-05-05 18:11 43.68583 -79.58744 824 ft 138 kts 230°
2026-05-05 18:12 43.67918 -79.59706 625 ft 137 kts 230°
2026-05-05 18:12 43.67392 -79.60486 583 ft 62 kts 225°
2026-05-05 18:12 43.67169 -79.60798 582 ft 41 kts 227°
2026-05-05 18:12 43.67071 -79.60962 582 ft 11 kts 252°
2026-05-05 18:13 43.67088 -79.61021 582 ft 7 kts 324°
2026-05-05 18:13 43.67136 -79.61079 582 ft 11 kts 316°
2026-05-05 18:13 43.67194 -79.61157 582 ft 13 kts 316°
2026-05-05 18:13 43.67263 -79.61249 582 ft 15 kts 316°
2026-05-05 18:14 43.67340 -79.61349 582 ft 17 kts 316°
2026-05-05 18:14 43.67428 -79.61465 582 ft 18 kts 316°
2026-05-05 18:14 43.67519 -79.61585 582 ft 18 kts 316°
2026-05-05 18:14 43.67612 -79.61707 582 ft 18 kts 316°
2026-05-05 18:15 43.67705 -79.61829 582 ft 18 kts 319°
2026-05-05 18:15 43.67804 -79.61949 582 ft 19 kts 316°
2026-05-05 18:15 43.67887 -79.62055 582 ft 11 kts 328°
2026-05-05 18:15 43.67963 -79.62032 582 ft 15 kts 46°
2026-05-05 18:16 43.68032 -79.62013 582 ft 12 kts 327°
2026-05-05 18:16 43.68089 -79.62077 582 ft 6 kts 336°
2026-05-05 18:16 43.68144 -79.62061 582 ft 10 kts 31°
2026-05-05 18:16 43.68168 -79.62042 582 ft 0 kts 31°